Time,TemperatureF,DewpointF,PressureIn,WindDirection,WindDirectionDegrees,WindSpeedMPH,WindSpeedGustMPH,Humidity,HourlyPrecipIn,Conditions,Clouds,dailyrainin,SoftwareType,DateUTC
2013-04-23 00:15:00,48.0,43.0,30.15,SE,145,0.0,0.0,84,0.00,,,0.00,weatherlink.com 1.10,2013-04-22 22:15:00,
2013-04-23 00:30:00,47.9,43.0,30.15,SE,146,0.0,0.0,84,0.00,,,0.00,weatherlink.com 1.10,2013-04-22 22:30:00,
2013-04-23 00:45:00,48.1,44.0,30.15,SE,139,0.0,0.0,84,0.00,,,0.00,weatherlink.com 1.10,2013-04-22 22:45:00,
2013-04-23 01:00:00,47.9,43.0,30.15,SE,124,0.0,0.0,84,0.00,,,0.00,weatherlink.com 1.10,2013-04-22 23:00:00,
2013-04-23 01:15:00,46.9,43.0,30.15,NE,49,0.0,0.0,86,0.00,,,0.00,weatherlink.com 1.10,2013-04-22 23:15:00,
2013-04-23 01:30:00,46.9,43.0,30.15,NNE,27,0.0,0.0,86,0.00,,,0.00,weatherlink.com 1.10,2013-04-22 23:30:00,
2013-04-23 01:45:00,46.3,43.0,30.15,NNW,330,1.0,2.0,87,0.00,,,0.00,weatherlink.com 1.10,2013-04-22 23:45:00,
2013-04-23 02:00:00,46.9,43.0,30.15,WNW,295,1.0,2.0,87,0.00,,,0.00,weatherlink.com 1.10,2013-04-23 00:00:00,
2013-04-23 02:15:00,47.8,44.0,30.14,WNW,288,0.0,0.0,86,0.00,,,0.00,weatherlink.com 1.10,2013-04-23 00:15:00,
2013-04-23 02:30:00,47.1,43.0,30.14,SW,231,0.0,0.0,85,0.00,,,0.00,weatherlink.com 1.10,2013-04-23 00:30:00,
2013-04-23 02:45:00,45.7,42.0,30.14,South,176,0.0,0.0,87,0.00,,,0.00,weatherlink.com 1.10,2013-04-23 00:45:00,
2013-04-23 03:00:00,46.2,43.0,30.13,South,177,0.0,0.0,89,0.00,,,0.00,weatherlink.com 1.10,2013-04-23 01:00:00,
2013-04-23 03:15:00,45.8,43.0,30.13,South,177,0.0,0.0,89,0.00,,,0.00,weatherlink.com 1.10,2013-04-23 01:15:00,
2013-04-23 03:30:00,44.7,41.0,30.13,NNE,20,0.0,0.0,88,0.00,,,0.00,weatherlink.com 1.10,2013-04-23 01:30:00,
2013-04-23 03:45:00,44.0,41.0,30.13,NNE,20,0.0,0.0,89,0.00,,,0.00,weatherlink.com 1.10,2013-04-23 01:45:00,
2013-04-23 04:00:00,45.1,43.0,30.13,NNE,32,0.0,0.0,91,0.00,,,0.00,weatherlink.com 1.10,2013-04-23 02:00:00,
2013-04-23 04:15:00,45.5,43.0,30.13,ENE,68,0.0,0.0,89,0.00,,,0.00,weatherlink.com 1.10,2013-04-23 02:15:00,
2013-04-23 04:30:00,44.2,41.0,30.13,East,82,0.0,0.0,88,0.00,,,0.00,weatherlink.com 1.10,2013-04-23 02:30:00,
2013-04-23 04:45:00,43.6,41.0,30.13,ENE,61,0.0,0.0,90,0.00,,,0.00,weatherlink.com 1.10,2013-04-23 02:45:00,
2013-04-23 05:00:00,43.0,40.0,30.14,ENE,62,0.0,0.0,90,0.00,,,0.00,weatherlink.com 1.10,2013-04-23 03:00:00,
2013-04-23 05:15:00,43.5,41.0,30.14,ENE,60,0.0,0.0,91,0.00,,,0.00,weatherlink.com 1.10,2013-04-23 03:15:00,
2013-04-23 05:30:00,43.4,41.0,30.14,South,177,0.0,0.0,92,0.00,,,0.00,weatherlink.com 1.10,2013-04-23 03:30:00,
2013-04-23 05:45:00,42.8,41.0,30.14,SSE,152,0.0,0.0,93,0.00,,,0.00,weatherlink.com 1.10,2013-04-23 03:45:00,
2013-04-23 06:00:00,42.7,41.0,30.14,SSE,152,0.0,0.0,92,0.00,,,0.00,weatherlink.com 1.10,2013-04-23 04:00:00,
2013-04-23 06:15:00,42.5,41.0,30.14,South,170,0.0,0.0,93,0.00,,,0.00,weatherlink.com 1.10,2013-04-23 04:15:00,
2013-04-23 06:30:00,42.4,41.0,30.15,SSE,165,0.0,0.0,93,0.00,,,0.00,weatherlink.com 1.10,2013-04-23 04:30:00,
2013-04-23 06:45:00,42.2,40.0,30.15,SSE,165,0.0,0.0,93,0.00,,,0.00,weatherlink.com 1.10,2013-04-23 04:45:00,
2013-04-23 07:00:00,42.1,40.0,30.15,SSE,165,0.0,0.0,93,0.00,,,0.00,weatherlink.com 1.10,2013-04-23 05:00:00,
2013-04-23 07:15:00,42.6,41.0,30.16,SSE,165,0.0,0.0,93,0.00,,,0.00,weatherlink.com 1.10,2013-04-23 05:15:00,
2013-04-23 07:30:00,43.6,42.0,30.16,SSE,165,0.0,0.0,92,0.00,,,0.00,weatherlink.com 1.10,2013-04-23 05:30:00,
2013-04-23 07:45:00,44.4,42.0,30.16,ESE,108,0.0,0.0,91,0.00,,,0.00,weatherlink.com 1.10,2013-04-23 05:45:00,
2013-04-23 08:01:00,44.6,42.0,30.17,ESE,109,0.0,0.0,89,0.00,,,0.00,weatherlink.com 1.10,2013-04-23 06:01:00,
2013-04-23 08:16:00,45.6,43.0,30.18,ESE,107,0.0,0.0,90,0.00,,,0.00,weatherlink.com 1.10,2013-04-23 06:16:00,
2013-04-23 08:31:00,47.9,45.0,30.18,East,94,0.0,0.0,88,0.00,,,0.00,weatherlink.com 1.10,2013-04-23 06:31:00,
2013-04-23 08:46:00,50.4,45.0,30.18,ENE,74,0.0,0.0,83,0.00,,,0.00,weatherlink.com 1.10,2013-04-23 06:46:00,
2013-04-23 09:01:00,52.0,46.0,30.18,ENE,67,0.0,0.0,80,0.00,,,0.00,weatherlink.com 1.10,2013-04-23 07:01:00,
2013-04-23 09:16:00,54.2,48.0,30.19,ENE,65,0.0,0.0,79,0.00,,,0.00,weatherlink.com 1.10,2013-04-23 07:16:00,
2013-04-23 09:31:00,56.0,49.0,30.19,South,187,1.0,4.0,77,0.00,,,0.00,weatherlink.com 1.10,2013-04-23 07:31:00,
2013-04-23 09:46:00,58.3,50.0,30.19,SSW,200,5.0,7.0,73,0.00,,,0.00,weatherlink.com 1.10,2013-04-23 07:46:00,
2013-04-23 10:01:00,60.1,51.0,30.20,SSW,203,10.0,12.0,71,0.00,,,0.00,weatherlink.com 1.10,2013-04-23 08:01:00,
2013-04-23 10:16:00,60.5,50.0,30.20,SSW,198,12.0,19.0,68,0.00,,,0.00,weatherlink.com 1.10,2013-04-23 08:16:00,
2013-04-23 10:31:00,60.7,48.0,30.20,SSW,205,16.0,22.0,64,0.00,,,0.00,weatherlink.com 1.10,2013-04-23 08:31:00,
2013-04-23 10:46:00,60.7,48.0,30.20,SSW,207,6.0,20.0,64,0.00,,,0.00,weatherlink.com 1.10,2013-04-23 08:46:00,
2013-04-23 11:01:00,61.1,47.0,30.21,SSW,197,25.0,26.0,61,0.00,,,0.00,weatherlink.com 1.10,2013-04-23 09:01:00,
2013-04-23 11:16:00,61.3,47.0,30.21,South,181,14.0,21.0,60,0.00,,,0.00,weatherlink.com 1.10,2013-04-23 09:16:00,
2013-04-23 11:31:00,61.8,48.0,30.21,SSW,213,10.0,22.0,60,0.00,,,0.00,weatherlink.com 1.10,2013-04-23 09:31:00,
2013-04-23 11:46:00,61.9,47.0,30.21,SW,224,15.0,23.0,58,0.00,,,0.00,weatherlink.com 1.10,2013-04-23 09:46:00,
2013-04-23 12:01:00,62.2,48.0,30.21,SSW,193,10.0,21.0,61,0.00,,,0.00,weatherlink.com 1.10,2013-04-23 10:01:00,
2013-04-23 12:16:00,62.0,46.0,30.21,SSW,207,15.0,25.0,57,0.00,,,0.00,weatherlink.com 1.10,2013-04-23 10:16:00,
2013-04-23 12:31:00,62.1,46.0,30.22,SSW,195,18.0,27.0,56,0.00,,,0.00,weatherlink.com 1.10,2013-04-23 10:31:00,
2013-04-23 12:47:00,62.5,46.0,30.21,South,180,19.0,27.0,56,0.00,,,0.00,weatherlink.com 1.10,2013-04-23 10:47:00,
2013-04-23 13:02:00,62.0,45.0,30.21,South,184,12.0,31.0,55,0.00,,,0.00,weatherlink.com 1.10,2013-04-23 11:02:00,
2013-04-23 13:17:00,62.5,45.0,30.22,SSW,205,14.0,28.0,53,0.00,,,0.00,weatherlink.com 1.10,2013-04-23 11:17:00,
2013-04-23 13:32:00,61.9,47.0,30.21,SSW,200,14.0,28.0,59,0.00,,,0.00,weatherlink.com 1.10,2013-04-23 11:32:00,
2013-04-23 13:47:00,62.8,47.0,30.21,South,179,13.0,25.0,57,0.00,,,0.00,weatherlink.com 1.10,2013-04-23 11:47:00,
2013-04-23 14:02:00,62.9,46.0,30.21,SSW,210,15.0,26.0,55,0.00,,,0.00,weatherlink.com 1.10,2013-04-23 12:02:00,
2013-04-23 14:17:00,62.9,47.0,30.20,SSW,208,16.0,26.0,56,0.00,,,0.00,weatherlink.com 1.10,2013-04-23 12:17:00,
2013-04-23 14:32:00,62.9,46.0,30.20,South,173,20.0,30.0,54,0.00,,,0.00,weatherlink.com 1.10,2013-04-23 12:32:00,
2013-04-23 14:47:00,62.6,48.0,30.20,SSE,152,13.0,28.0,60,0.00,,,0.00,weatherlink.com 1.10,2013-04-23 12:47:00,
2013-04-23 15:02:00,62.9,48.0,30.20,SSW,193,25.0,27.0,58,0.00,,,0.00,weatherlink.com 1.10,2013-04-23 13:02:00,
2013-04-23 15:17:00,63.1,45.0,30.20,SSW,194,20.0,26.0,53,0.00,,,0.00,weatherlink.com 1.10,2013-04-23 13:17:00,
2013-04-23 15:32:00,63.0,46.0,30.19,South,181,18.0,27.0,54,0.00,,,0.00,weatherlink.com 1.10,2013-04-23 13:32:00,
2013-04-23 15:47:00,62.6,47.0,30.20,SSW,208,17.0,29.0,58,0.00,,,0.00,weatherlink.com 1.10,2013-04-23 13:47:00,
2013-04-23 16:02:00,62.1,46.0,30.19,SSW,199,18.0,30.0,55,0.00,,,0.00,weatherlink.com 1.10,2013-04-23 14:02:00,
2013-04-23 16:17:00,62.2,45.0,30.19,South,180,21.0,31.0,53,0.00,,,0.00,weatherlink.com 1.10,2013-04-23 14:17:00,
2013-04-23 16:32:00,61.9,46.0,30.19,SSW,204,21.0,26.0,57,0.00,,,0.00,weatherlink.com 1.10,2013-04-23 14:32:00,
2013-04-23 16:47:00,61.8,46.0,30.19,SSW,198,13.0,27.0,56,0.00,,,0.00,weatherlink.com 1.10,2013-04-23 14:47:00,
2013-04-23 17:02:00,61.6,46.0,30.18,South,187,15.0,28.0,58,0.00,,,0.00,weatherlink.com 1.10,2013-04-23 15:02:00,
2013-04-23 17:17:00,61.5,48.0,30.18,South,174,15.0,25.0,61,0.00,,,0.00,weatherlink.com 1.10,2013-04-23 15:17:00,
2013-04-23 17:32:00,61.0,50.0,30.18,South,187,18.0,27.0,67,0.00,,,0.00,weatherlink.com 1.10,2013-04-23 15:32:00,
2013-04-23 17:47:00,60.0,51.0,30.18,SSW,194,24.0,28.0,72,0.00,,,0.00,weatherlink.com 1.10,2013-04-23 15:47:00,
2013-04-23 18:02:00,60.5,51.0,30.17,South,190,16.0,26.0,72,0.00,,,0.00,weatherlink.com 1.10,2013-04-23 16:02:00,
2013-04-23 18:17:00,61.3,52.0,30.17,South,177,12.0,19.0,72,0.00,,,0.00,weatherlink.com 1.10,2013-04-23 16:17:00,
2013-04-23 18:32:00,61.0,53.0,30.17,SSW,197,13.0,19.0,75,0.00,,,0.00,weatherlink.com 1.10,2013-04-23 16:32:00,
2013-04-23 18:47:00,61.0,51.0,30.17,SSW,197,13.0,19.0,70,0.00,,,0.00,weatherlink.com 1.10,2013-04-23 16:47:00,
2013-04-23 19:02:00,60.3,51.0,30.17,SW,221,10.0,17.0,71,0.00,,,0.00,weatherlink.com 1.10,2013-04-23 17:02:00,
2013-04-23 19:17:00,60.3,51.0,30.17,WSW,239,9.0,17.0,72,0.00,,,0.00,weatherlink.com 1.10,2013-04-23 17:17:00,
2013-04-23 19:32:00,60.1,51.0,30.18,SW,218,11.0,15.0,73,0.00,,,0.00,weatherlink.com 1.10,2013-04-23 17:32:00,
2013-04-23 19:47:00,59.7,51.0,30.17,SSW,208,12.0,15.0,74,0.00,,,0.00,weatherlink.com 1.10,2013-04-23 17:47:00,
2013-04-23 20:02:00,58.6,52.0,30.18,South,186,4.0,14.0,78,0.00,,,0.00,weatherlink.com 1.10,2013-04-23 18:02:00,
2013-04-23 20:17:00,58.0,52.0,30.18,SSW,201,5.0,10.0,79,0.00,,,0.00,weatherlink.com 1.10,2013-04-23 18:17:00,
2013-04-23 20:32:00,57.3,52.0,30.18,SSW,201,2.0,6.0,82,0.00,,,0.00,weatherlink.com 1.10,2013-04-23 18:32:00,
2013-04-23 20:47:00,56.8,52.0,30.19,SSW,202,3.0,8.0,84,0.00,,,0.00,weatherlink.com 1.10,2013-04-23 18:47:00,
2013-04-23 21:02:00,56.3,52.0,30.20,SSW,212,6.0,7.0,85,0.00,,,0.00,weatherlink.com 1.10,2013-04-23 19:02:00,
2013-04-23 21:17:00,55.9,52.0,30.20,SSW,207,5.0,8.0,86,0.00,,,0.00,weatherlink.com 1.10,2013-04-23 19:17:00,
2013-04-23 21:32:00,55.5,51.0,30.21,SSW,195,4.0,6.0,86,0.00,,,0.00,weatherlink.com 1.10,2013-04-23 19:32:00,
2013-04-23 21:47:00,55.4,52.0,30.21,SSW,201,4.0,12.0,87,0.00,,,0.00,weatherlink.com 1.10,2013-04-23 19:47:00,
2013-04-23 22:02:00,55.5,51.0,30.22,SW,217,4.0,10.0,86,0.00,,,0.00,weatherlink.com 1.10,2013-04-23 20:02:00,
2013-04-23 22:17:00,55.2,51.0,30.22,SW,231,4.0,7.0,86,0.00,,,0.00,weatherlink.com 1.10,2013-04-23 20:17:00,
2013-04-23 22:32:00,55.0,51.0,30.23,WSW,252,2.0,6.0,87,0.00,,,0.00,weatherlink.com 1.10,2013-04-23 20:32:00,
2013-04-23 22:47:00,55.6,52.0,30.23,WSW,242,1.0,7.0,86,0.00,,,0.00,weatherlink.com 1.10,2013-04-23 20:47:00,
2013-04-23 23:02:00,55.3,51.0,30.23,SW,224,3.0,3.0,86,0.00,,,0.00,weatherlink.com 1.10,2013-04-23 21:02:00,
2013-04-23 23:17:00,54.8,51.0,30.24,South,173,1.0,2.0,86,0.00,,,0.00,weatherlink.com 1.10,2013-04-23 21:17:00,
2013-04-23 23:32:00,54.3,51.0,30.23,SSE,159,2.0,3.0,87,0.00,,,0.00,weatherlink.com 1.10,2013-04-23 21:32:00,
2013-04-23 23:47:00,54.1,51.0,30.24,SSE,154,2.0,4.0,88,0.00,,,0.00,weatherlink.com 1.10,2013-04-23 21:47:00,